Santa Fe, NM

10:58 AM MDT on September 27, 2016 (GMT -0600)
Santa Fe Municipal

Weather History for KSAF - April, 2013

Change the Weather History Date:

Wednesday, April 10, 2013

  Actual Average Record
Temperature  
Mean Temperature 36 °F -  
Max Temperature 48 °F 0 °F 78 °F (2012)
Min Temperature 26 °F - 21 °F (1999)
Degree Days  
Heating Degree Days 29    
Moisture  
Dew Point 24 °F    
Average Humidity 74    
Maximum Humidity 96    
Minimum Humidity 37    
Precipitation  
Precipitation 0.00 in - - ()
Sea Level Pressure  
Sea Level Pressure 29.87 in    
Wind  
Wind Speed 13 mph (SSE)    
Max Wind Speed 18 mph    
Max Gust Speed 29 mph    
Visibility 7 miles    
Events Rain , Snow    
Averages and records for this station are not official NWS values.
T = Trace of Precipitation, MM = Missing Value Source: NWS Daily Summary

Daily Weather History Graph

Daily Weather History Graph

Search for Another Location

Airport or City:

Trip Planner

Search our weather history database for the weather conditions in past years. The results will help you decide how hot, cold, wet, or windy it might be!

Date:

Astronomy

Apr. 10, 2013 Rise Set
Actual Time 6:37 AM MDT 7:33 PM MDT
Civil Twilight 6:11 AM MDT 7:59 PM MDT
Nautical Twilight 5:41 AM MDT 8:30 PM MDT
Astronomical Twilight 5:09 AM MDT 9:02 PM MDT
Moon 6:36 AM MDT (4/10) 8:09 PM MDT (4/10)
Length of Visible Light 13h 47m
Length of Day
12h 55m
New Moon, 0% of the Moon is Illuminated
Apr 10
New Moon
Apr 18
First Quarter
Apr 25
Full
May 2
Last Quarter
May 9
New

Hourly Weather History & Observations

Time (MDT) Temp. Windchill Dew Point Humidity Pressure Visibility Wind Dir Wind Speed Gust Speed Precip Events Conditions
12:53 AM 34.0 °F 24.2 °F 27.0 °F 75% 29.78 in 9.0 mi SE 15.0 mph - 0.00 in Rain Light Rain
1:53 AM 33.1 °F 23.4 °F 26.1 °F 75% 29.80 in 10.0 mi SE 13.8 mph - 0.00 in   Overcast
2:36 AM 32.0 °F 23.0 °F 26.6 °F 80% 29.87 in 2.0 mi SSE 11.5 mph - 0.00 in Snow Light Snow
2:43 AM 30.2 °F 20.2 °F 26.6 °F 86% 29.87 in 1.0 mi SSE 12.7 mph - 0.00 in Snow Light Snow
2:53 AM 30.0 °F 19.1 °F 27.0 °F 88% 29.78 in 1.0 mi SE 15.0 mph - 0.00 in Snow Light Snow
3:04 AM 30.2 °F 21.3 °F 26.6 °F 86% 29.87 in 2.5 mi SE 10.4 mph - 0.00 in Snow Light Snow
3:11 AM 30.2 °F 20.2 °F 26.6 °F 86% 29.87 in 6.0 mi SE 12.7 mph - 0.00 in Snow Light Snow
3:19 AM 30.2 °F 19.3 °F 26.6 °F 86% 29.87 in 9.0 mi SE 15.0 mph - 0.00 in   Overcast
3:53 AM 30.9 °F 19.1 °F 26.1 °F 82% 29.82 in 10.0 mi SE 18.4 mph - 0.00 in   Overcast
4:39 AM 28.4 °F 16.6 °F 24.8 °F 86% 29.88 in 2.5 mi SSE 16.1 mph 21.9 mph 0.00 in Snow Light Snow
4:50 AM 26.6 °F 14.7 °F 24.8 °F 93% 29.88 in 1.5 mi SE 15.0 mph - 0.00 in Snow Light Snow
4:53 AM 27.0 °F 15.2 °F 26.1 °F 96% 29.86 in 1.5 mi SSE 15.0 mph - 0.00 in Snow Light Snow
5:10 AM 26.6 °F 15.7 °F 24.8 °F 93% 29.88 in 2.5 mi SSE 12.7 mph - 0.00 in Snow Light Snow
5:31 AM 26.6 °F 15.2 °F 24.8 °F 93% 29.88 in 4.0 mi SE 13.8 mph - 0.00 in Snow Light Snow
5:50 AM 26.6 °F 15.7 °F 24.8 °F 93% 29.88 in 2.5 mi SE 12.7 mph - 0.00 in Snow Light Snow
5:53 AM 27.0 °F 15.2 °F 25.0 °F 92% 29.86 in 3.0 mi SE 15.0 mph - 0.00 in Snow Light Snow
6:10 AM 26.6 °F 15.2 °F 24.8 °F 93% 29.88 in 5.0 mi SE 13.8 mph - 0.00 in Snow Light Snow
6:53 AM 27.0 °F 16.1 °F 24.1 °F 89% 29.88 in 10.0 mi SSE 12.7 mph - 0.00 in   Overcast
7:53 AM 27.0 °F 16.1 °F 23.0 °F 85% 29.91 in 10.0 mi SE 12.7 mph - N/A   Overcast
8:49 AM 28.4 °F 18.0 °F 24.8 °F 86% 29.94 in 10.0 mi SE 12.7 mph - N/A   Overcast
8:53 AM 28.0 °F 17.5 °F 24.1 °F 85% 29.93 in 10.0 mi SSE 12.7 mph - N/A   Overcast
9:46 AM 28.4 °F 19.7 °F 24.8 °F 86% 29.95 in 2.5 mi SE 9.2 mph - 0.00 in Snow Light Snow
9:53 AM 28.9 °F 20.4 °F 26.1 °F 89% 29.94 in 2.5 mi SE 9.2 mph - 0.00 in Snow Light Snow
10:01 AM 28.4 °F 19.1 °F 26.6 °F 93% 29.95 in 4.0 mi SE 10.4 mph - 0.00 in Snow Light Snow
10:53 AM 34.0 °F 25.0 °F 30.0 °F 85% 29.90 in 10.0 mi SE 12.7 mph - 0.00 in   Overcast
11:23 AM 37.4 °F 31.4 °F 30.2 °F 75% 29.93 in 10.0 mi ESE 8.1 mph - N/A   Mostly Cloudy
11:53 AM 39.0 °F - 28.0 °F 65% 29.87 in 10.0 mi Calm Calm - N/A   Mostly Cloudy
12:53 PM 43.0 °F 36.0 °F 26.1 °F 51% 29.83 in 10.0 mi West 13.8 mph 21.9 mph N/A   Mostly Cloudy
1:53 PM 44.1 °F 36.8 °F 23.0 °F 43% 29.81 in 10.0 mi WSW 16.1 mph 21.9 mph N/A   Overcast
2:53 PM 46.0 °F 39.0 °F 21.0 °F 37% 29.81 in 10.0 mi West 17.3 mph 25.3 mph N/A   Mostly Cloudy
3:53 PM 45.0 °F 37.9 °F 21.9 °F 40% 29.80 in 10.0 mi West 16.1 mph - N/A   Overcast
4:53 PM 45.0 °F 38.2 °F 21.9 °F 40% 29.82 in 10.0 mi WSW 15.0 mph 28.8 mph N/A   Overcast
5:53 PM 44.1 °F 36.5 °F 19.9 °F 38% 29.83 in 10.0 mi SW 17.3 mph 21.9 mph N/A   Mostly Cloudy
6:53 PM 39.9 °F 32.1 °F 18.0 °F 41% 29.86 in 10.0 mi WSW 13.8 mph - N/A   Clear
7:53 PM 36.0 °F 28.5 °F 19.0 °F 50% 29.88 in 10.0 mi West 10.4 mph - N/A   Clear
8:53 PM 34.0 °F 28.8 °F 19.9 °F 56% 29.92 in 10.0 mi NW 5.8 mph - N/A   Clear
9:53 PM 32.0 °F 27.5 °F 19.0 °F 59% 29.94 in 10.0 mi WNW 4.6 mph - N/A   Overcast
10:53 PM 32.0 °F 28.7 °F 21.0 °F 64% 29.93 in 10.0 mi WSW 3.5 mph - N/A   Mostly Cloudy
11:53 PM 33.1 °F 30.0 °F 19.9 °F 59% 29.90 in 10.0 mi North 3.5 mph - N/A   Mostly Cloudy